TimeEET,TemperatureF,Dew PointF,Humidity,Sea Level PressureIn,VisibilityMPH,Wind Direction,Wind SpeedMPH,Gust SpeedMPH,PrecipitationIn,Events,Conditions,WindDirDegrees,DateUTC
12:20 AM,48.2,39.2,71,30.15,-9999.0,East,8.1,-,N/A,,Clear,90,2013-01-15 22:20:00
12:50 AM,48.2,37.4,66,30.12,-9999.0,ESE,11.5,-,N/A,,Clear,120,2013-01-15 22:50:00
1:20 AM,48.2,39.2,71,30.12,-9999.0,East,11.5,-,N/A,,Clear,100,2013-01-15 23:20:00
1:50 AM,48.2,37.4,66,30.12,-9999.0,East,6.9,-,N/A,,Clear,80,2013-01-15 23:50:00
2:00 AM,47,38,61,30.13,6,East,6.9,,,,Clear,80,2013-01-16 00:00:00
2:20 AM,48.2,37.4,66,30.12,-9999.0,East,9.2,-,N/A,,Clear,90,2013-01-16 00:20:00
2:50 AM,48.2,37.4,66,30.09,-9999.0,East,6.9,-,N/A,,Clear,90,2013-01-16 00:50:00
3:20 AM,48.2,37.4,66,30.09,-9999.0,East,8.1,-,N/A,,Clear,100,2013-01-16 01:20:00
3:50 AM,48.2,39.2,71,30.06,-9999.0,SE,8.1,-,N/A,,Clear,130,2013-01-16 01:50:00
4:20 AM,46.4,39.2,76,30.06,-9999.0,SE,6.9,-,N/A,,Clear,140,2013-01-16 02:20:00
4:50 AM,48.2,37.4,66,30.06,-9999.0,SE,8.1,-,N/A,,Clear,140,2013-01-16 02:50:00
5:20 AM,50.0,35.6,58,30.04,-9999.0,SSE,12.7,-,N/A,,Clear,150,2013-01-16 03:20:00
5:50 AM,50.0,33.8,54,30.04,-9999.0,SE,13.8,-,N/A,,Clear,140,2013-01-16 03:50:00
6:20 AM,48.2,37.4,66,30.04,-9999.0,SSE,12.7,-,N/A,,Clear,150,2013-01-16 04:20:00
6:50 AM,48.2,37.4,66,30.01,-9999.0,SE,12.7,-,N/A,,Clear,130,2013-01-16 04:50:00
7:20 AM,50.0,37.4,62,30.01,-9999.0,SE,15.0,-,N/A,,Clear,140,2013-01-16 05:20:00
7:50 AM,48.2,37.4,66,30.01,-9999.0,ESE,11.5,-,N/A,,Clear,120,2013-01-16 05:50:00
8:00 AM,49,37,53,30.03,6,ESE,11.5,,,,Partly Cloudy,120,2013-01-16 06:00:00
8:20 AM,51.8,39.2,62,30.01,6.2,ESE,10.4,-,N/A,,Partly Cloudy,120,2013-01-16 06:20:00
8:50 AM,51.8,39.2,62,30.01,6.2,SE,10.4,-,N/A,,Partly Cloudy,130,2013-01-16 06:50:00
9:20 AM,51.8,37.4,58,30.01,6.2,SSE,15.0,-,N/A,,Partly Cloudy,150,2013-01-16 07:20:00
9:50 AM,51.8,39.2,62,29.98,6.2,SE,11.5,-,N/A,,Partly Cloudy,130,2013-01-16 07:50:00
10:20 AM,51.8,39.2,62,29.98,6.2,SE,15.0,-,N/A,,Partly Cloudy,130,2013-01-16 08:20:00
10:50 AM,51.8,37.4,58,29.95,6.2,SE,16.1,-,N/A,,Partly Cloudy,130,2013-01-16 08:50:00
11:20 AM,53.6,37.4,54,29.95,6.2,SE,16.1,-,N/A,,Scattered Clouds,130,2013-01-16 09:20:00
11:50 AM,53.6,37.4,54,29.95,6.2,ESE,13.8,-,N/A,,Scattered Clouds,120,2013-01-16 09:50:00
12:20 PM,55.4,39.2,54,29.92,6.2,East,11.5,-,N/A,,Scattered Clouds,100,2013-01-16 10:20:00
12:50 PM,57.2,39.2,51,29.92,6.2,SE,8.1,-,N/A,,Scattered Clouds,140,2013-01-16 10:50:00
1:20 PM,60.8,39.2,45,29.89,6.2,SSE,8.1,-,N/A,,Scattered Clouds,160,2013-01-16 11:20:00
1:50 PM,60.8,39.2,45,29.89,6.2,South,6.9,-,N/A,,Scattered Clouds,170,2013-01-16 11:50:00
2:00 PM,60,38,33,29.89,6,South,6.9,,,,Partly Cloudy,170,2013-01-16 12:00:00
2:20 PM,62.6,39.2,42,29.86,6.2,South,9.2,-,N/A,,Scattered Clouds,180,2013-01-16 12:20:00
2:50 PM,62.6,37.4,39,29.86,6.2,South,9.2,-,N/A,,Scattered Clouds,170,2013-01-16 12:50:00
3:20 PM,59.0,39.2,48,29.83,6.2,South,9.2,-,N/A,,Scattered Clouds,170,2013-01-16 13:20:00
3:50 PM,57.2,39.2,51,29.83,6.2,South,8.1,-,N/A,,Scattered Clouds,180,2013-01-16 13:50:00
4:20 PM,55.4,41.0,58,29.80,6.2,South,11.5,-,N/A,,Scattered Clouds,170,2013-01-16 14:20:00
4:50 PM,59.0,37.4,45,29.80,6.2,South,17.3,-,N/A,,Scattered Clouds,180,2013-01-16 14:50:00
5:20 PM,57.2,39.2,51,29.80,6.2,South,12.7,-,N/A,,Scattered Clouds,190,2013-01-16 15:20:00
5:50 PM,57.2,39.2,51,29.80,6.2,WSW,11.5,-,N/A,,Scattered Clouds,240,2013-01-16 15:50:00
6:20 PM,53.6,42.8,67,29.80,6.2,West,8.1,-,N/A,,Scattered Clouds,260,2013-01-16 16:20:00
6:50 PM,53.6,42.8,67,29.80,6.2,North,13.8,-,N/A,,Mostly Cloudy,350,2013-01-16 16:50:00
7:20 PM,51.8,42.8,71,29.80,6.2,NW,13.8,-,N/A,,Scattered Clouds,310,2013-01-16 17:20:00
7:50 PM,51.8,42.8,71,29.83,6.2,WNW,16.1,-,N/A,Rain,Light Rain Showers,300,2013-01-16 17:50:00
8:00 PM,51,43,65,29.84,6,WNW,16.1,,,Rain,Light Rain Showers,300,2013-01-16 18:00:00
8:20 PM,50.0,42.8,76,29.83,6.2,WNW,15.0,-,N/A,Rain,Light Rain Showers,290,2013-01-16 18:20:00
8:50 PM,48.2,44.6,87,29.83,6.2,WNW,11.5,-,N/A,Rain,Light Rain Showers,290,2013-01-16 18:50:00
9:20 PM,48.2,42.8,82,29.83,6.2,West,11.5,25.3,N/A,Rain,Light Rain Showers,280,2013-01-16 19:20:00
9:50 PM,48.2,44.6,87,29.83,6.2,WSW,16.1,-,N/A,Rain,Light Rain Showers,250,2013-01-16 19:50:00
10:20 PM,48.2,44.6,87,29.80,6.2,SSW,16.1,-,N/A,Rain,Light Rain Showers,210,2013-01-16 20:20:00
10:50 PM,46.4,46.4,100,29.80,6.2,South,19.6,-,N/A,Rain,Light Rain Showers,180,2013-01-16 20:50:00
11:20 PM,48.2,44.6,87,29.74,6.2,SSE,25.3,-,N/A,Rain,Light Rain Showers,160,2013-01-16 21:20:00
11:50 PM,48.2,42.8,82,29.71,6.2,SSE,24.2,-,N/A,Rain,Light Rain Showers,150,2013-01-16 21:50:00